Hourly Data Report for August 09, 2021

TORONTO CITY
ONTARIO
Current Station Operator: ECCC - MSC

43°40'00.000" N
79°24'00.000" W
112.50 m
6158355
71508
XTO

Download Data

Hourly Data (August 2021)
Hourly Data Report for August 9, 2021
TIME
LST
Temp Definition
°C
Dew Point Definition
°C
Rel Hum Definition
%
Precip. Amount Definition
mm

Wind Dir Definition
10's deg

Wind Spd Definition
km/h
Visibility Definition
km
Stn Press Definition
kPa
Hmdx Definition


Wind Chill Definition


Weather Definition


00:00 23.5 21.2 87 0.0       100.36 32   LegendNANA
01:00 22.9 21.0 89 0.0       100.36 31   LegendNANA
02:00 22.6 20.7 89 0.0       100.35 31   LegendNANA
03:00 22.6 20.6 88 0.0       100.36 31   LegendNANA
04:00 22.7 20.6 88 0.0       100.36 31   LegendNANA
05:00 22.8 21.2 91 0.0       100.38 31   LegendNANA
06:00 23.3 21.4 89 0.0       100.43 32   LegendNANA
07:00 24.1 21.7 87 0.0       100.46 33   LegendNANA
08:00 24.9 21.5 82 0.0       100.48 34   LegendNANA
09:00 26.1 21.7 77 0.0       100.44 35   LegendNANA
10:00 27.3 20.9 68 0.0       100.45 36   LegendNANA
11:00 28.2 21.3 67 0.0       100.45 37   LegendNANA
12:00 29.1 21.3 63 0.0       100.42 38   LegendNANA
13:00 30.2 21.5 60 0.0       100.38 39   LegendNANA
14:00 30.3 21.2 58 0.0       100.35 39   LegendNANA
15:00 29.5 21.4 62 0.0       100.29 38   LegendNANA
16:00 28.5 21.0 64 0.0       100.28 37   LegendNANA
17:00 28.1 21.2 66 0.0       100.27 37   LegendNANA
18:00 27.2 20.5 67 0.0       100.25 35   LegendNANA
19:00 26.6 20.7 70 0.0       100.26 35   LegendNANA
20:00 25.9 21.2 75 0.0       100.29 34   LegendNANA
21:00 26.1 21.4 75 0.0       100.29 35   LegendNANA
22:00 26.2 21.6 76 0.0       100.26 35   LegendNANA
23:00 25.7 22.1 81 0.0       100.23 35   LegendNANA

Notes on Data Quality.

Legend

  • E = Estimated
  • M = Missing
  • NA = Not Available*
  • [empty] = Indicates an unobserved value
Date modified: